Regional Weather Roundup
Issued by NWS Little Rock, AR

Home | Current Version | Previous Version | Text Only | Print | Product List | Glossary On
Versions: 1 2 3 4 5 6 7 8 9 10 11 12 13 14 15 16 17 18 19 20 21 22 23 24 25 26 27 28 29 30 31 32 33 34 35 36 37 38 39 40 41 42 43 44 45 46 47 48 49 50
000
ASUS44 KLZK 271205
RWRLZK

WEATHER ROUNDUP FOR ARKANSAS
NATIONAL WEATHER SERVICE LITTLE ROCK AR
600 AM CST THU NOV 27 2014

NOTE: "FAIR" INDICATES FEW OR NO CLOUDS BELOW 12,000 FEET WITH NO
SIGNIFICANT WEATHER AND/OR OBSTRUCTIONS TO VISIBILITY.

ARZ001-003-010-029-271300-
NORTHWEST ARKANSAS

CITY           SKY/WX    TMP DP  RH WIND       PRES   REMARKS
FAYETTEVILLE   CLEAR     26  22  84 CALM      30.45S
6HR MIN TEMP:  26; 6HR MAX TEMP:  31;

FORT SMITH     CLEAR     29  23  78 W9        30.49R WCI  20
6HR MIN TEMP:  29; 6HR MAX TEMP:  39;

HARRISON       CLEAR     28  23  81 N5        30.44R WCI  23
6HR MIN TEMP:  28; 6HR MAX TEMP:  34;

BENTONVILLE    CLEAR     27  21  80 NE6       30.44F WCI  20
6HR MIN TEMP:  27; 6HR MAX TEMP:  32;

ROGERS         CLEAR     25  22  88 CALM      30.45S
6HR MIN TEMP:  25; 6HR MAX TEMP:  32;

SILOAM SPGS    CLEAR     25  16  68 N3        30.46R
6HR MIN TEMP:  23; 6HR MAX TEMP:  30;

HIGHFILL       CLEAR     24  21  88 N6        30.44S WCI  17
6HR MIN TEMP:  23; 6HR MAX TEMP:  31;

SPRINGDALE     CLEAR     27  23  86 N8        30.45  WCI  18
$$

ARZ004-005-016-271300-
NORTH CENTRAL ARKANSAS

CITY           SKY/WX    TMP DP  RH WIND       PRES   REMARKS
BATESVILLE     MOCLDY    36  25  64 NW9G18    30.43R
6HR MIN TEMP:  36; 6HR MAX TEMP:  41;

FLIPPIN        CLOUDY    34  21  60 NW9       30.46R WCI  26
6HR MIN TEMP:  34; 6HR MAX TEMP:  37;

MTN HOME       CLOUDY    33  24  69 NW5       30.44R WCI  29
6HR MIN TEMP:  33; 6HR MAX TEMP:  36;

$$

ARZ040-041-271300-
WEST CENTRAL ARKANSAS

CITY           SKY/WX    TMP DP  RH WIND       PRES   REMARKS
MENA           CLEAR     36  27  69 CALM      30.44R
MOUNT IDA      CLEAR     32  25  75 CALM      30.43S
6HR MIN TEMP:  32; 6HR MAX TEMP:  42;

$$

ARZ009-017-025-026-028-271300-
NORTHEAST ARKANSAS

CITY           SKY/WX    TMP DP  RH WIND       PRES   REMARKS
CORNING        CLOUDY    37  30  75 NW12      30.42R
JONESBORO      CLOUDY    37  29  72 NW8       30.41R
6HR MIN TEMP:  37; 6HR MAX TEMP:  41;

NEWPORT        CLOUDY    37  28  70 N15       30.45R
6HR MIN TEMP:  37; 6HR MAX TEMP:  40;

WALNUT RIDGE   CLOUDY    37  27  65 NW9       30.42R
6HR MIN TEMP:  37; 6HR MAX TEMP:  39;

BLYTHEVILLE    CLOUDY    42  31  64 N17       30.37S
6HR MIN TEMP:  42; 6HR MAX TEMP:  45;

$$

ARZ022-023-033-042-044-271300-
CENTRAL ARKANSAS

CITY           SKY/WX    TMP DP  RH WIND       PRES   REMARKS
LITTLE ROCK    CLEAR     36  24  62 NW8       30.46R
6HR MIN TEMP:  36; 6HR MAX TEMP:  46;

N LITTLE ROCK    N/A     35  28  75 N12G18    30.46R WCI  26
6HR MIN TEMP:  35; 6HR MAX TEMP:  42;

JACKSONVILLE   CLEAR     35  25  67 N5        30.46R WCI  31
6HR MIN TEMP:  35; 6HR MAX TEMP:  41;

SEARCY         CLOUDY    35  26  69 NW3       30.47R
6HR MIN TEMP:  35; 6HR MAX TEMP:  41;

HOT SPRINGS    CLEAR     34  26  72 VRB5      30.46R WCI  30
6HR MIN TEMP:  34; 6HR MAX TEMP:  44;

RUSSELLVILLE   CLEAR     34  25  69 N6        30.46R WCI  29
6HR MIN TEMP:  31; 6HR MAX TEMP:  41;

CLINTON        FAIR      36  25  64 N5        30.46R
$$

ARZ036-271300-
EAST ARKANSAS

CITY           SKY/WX    TMP DP  RH WIND       PRES   REMARKS
WEST MEMPHIS   MOCLDY    37  31  78 VRB7      30.41R
6HR MIN TEMP:  37; 6HR MAX TEMP:  42;

$$

ARZ050-053-066-070-073-271300-
SOUTHWEST ARKANSAS

CITY           SKY/WX    TMP DP  RH WIND       PRES   REMARKS
ARKADELPHIA    FAIR      35  28  76 NW7       30.48R WCI  29
6HR MIN TEMP:  35; 6HR MAX TEMP:  45;

CAMDEN         CLEAR     36  27  69 MISG      30.47R
TEXARKANA      CLEAR     37  28  70 NW9       30.48R
6HR MIN TEMP:  37; 6HR MAX TEMP:  45;

EL DORADO      CLEAR     35  29  78 NW7       30.46R WCI  29
6HR MIN TEMP:  34; 6HR MAX TEMP:  43;

DE QUEEN       CLEAR     30  27  88 CALM      30.47R
6HR MIN TEMP:  30; 6HR MAX TEMP:  43;

$$

ARZ056-057-069-271300-
SOUTHEAST ARKANSAS

CITY           SKY/WX    TMP DP  RH WIND       PRES   REMARKS
PINE BLUFF     FLURRIES  36  27  69 W3        30.47R
6HR MIN TEMP:  36; 6HR MAX TEMP:  44; 6HR PCP: TRACE;

STUTTGART      CLEAR     36  25  64 N16G22    30.43R
6HR MIN TEMP:  36; 6HR MAX TEMP:  45;

MONTICELLO     CLEAR     38  28  67 NW3       30.45R
6HR MIN TEMP:  37; 6HR MAX TEMP:  47;


$$





USA.gov is the U.S. government's official web portal to all federal, state and local government web resources and services.